{"data":{"norad_id":67031,"epoch":"2026-09-20T08:11:02.618592Z","epoch_age_seconds":95437,"freshness":"FRESH","line1":"1 67031U 25294B   26263.34100253  .00008431  00000+0  31548-3 0  9995","line2":"2 67031  43.0023  18.3611 0001008 267.2470  92.8266 15.27588501 44573","mean_motion":15.27588501,"eccentricity":0.0001008,"inclination_deg":43.0023,"raan_deg":18.3611,"arg_perigee_deg":267.247,"mean_anomaly_deg":92.8266,"bstar":0.00031548,"rev_number":4457,"period_min":94.266224121047,"perigee_km":482.33203611286,"apogee_km":483.71524609811,"semimajor_km":6861.1606411055,"source":"CELESTRAK","updated_at":"2026-09-21T09:00:36.091184Z"}}